Regional Weather Roundup
Issued by NWS

Home | Current Version | Previous Version | Text Only | Print | Product List | Glossary On
Versions: 1 2 3 4 5 6 7 8 9 10 11 12 13 14 15 16 17 18 19 20 21 22 23 24 25 26 27 28 29 30 31 32 33 34 35 36 37 38 39 40 41 42 43 44 45 46 47 48 49 50
000
ASUS43 KDTX 141210
RWRMI
MICHIGAN HOURLY REGIONAL WEATHER ROUNDUP
NATIONAL WEATHER SERVICE DETROIT/PONTIAC MI
700 AM EST THU DEC 14 2017

NOTE: "FAIR" INDICATES FEW OR NO CLOUDS BELOW 12,000 FEET WITH NO
SIGNIFICANT WEATHER AND/OR OBSTRUCTION TO VISIBILITY.

MIZ047>049-052>055-059>063-066>070-074>076-081>083-141300-
SOUTHEAST LOWER MICHIGAN

CITY           SKY/WX    TMP DP  RH WIND       PRES   REMARKS
ADRIAN         PTCLDY    13   7  77 N9        29.91R WCI   1
6HR MIN TEMP:  13; 6HR MAX TEMP:  20; 6HR PCP: TRACE;

ALMA           CLOUDY    -8 -11  85 CALM      29.92S
6HR MIN TEMP:  -8; 6HR MAX TEMP:  15;

ANN ARBOR      MOCLDY    13   8  81 NW9       29.88R WCI   1
BAD AXE        PTCLDY    12   8  81 NW12      29.86R WCI  -2
6HR MIN TEMP:  12; 6HR MAX TEMP:  21;

CARO           CLEAR      7   3  85 W5        29.89R WCI  -2
DETROIT CITY   CLEAR     16  11  80 NW8       29.88R WCI   5
6HR MIN TEMP:  16; 6HR MAX TEMP:  21; 6HR PCP: TRACE;

DETROIT        FLURRIES  18   9  68 NW12      29.90R WCI   5
6HR MIN TEMP:  18; 6HR MAX TEMP:  23; 6HR PCP:  0.01;

FLINT          PTCLDY     3   0  87 W8        29.91R WCI -10
6HR MIN TEMP:   3; 6HR MAX TEMP:  20; 6HR PCP: TRACE;

GROSSE ILE     FLURRIES  17  12  80 NW12      29.88R WCI   4
6HR MIN TEMP:  17; 6HR MAX TEMP:  23;

HILLSDALE      PTCLDY    10   5  79 NW7       29.89R WCI   0
HOWELL         PTCLDY     8   5  86 NW3       29.89R
6HR MIN TEMP:   8; 6HR MAX TEMP:  20;


CITY           SKY/WX    TMP DP  RH WIND       PRES   REMARKS
JACKSON        CLOUDY    10   5  80 W5        29.91R WCI   2
6HR MIN TEMP:  10; 6HR MAX TEMP:  20; 6HR PCP: TRACE;

LAMBERTVILLE   PTCLDY    14  10  84 NW3       29.91R
6HR MIN TEMP:  14; 6HR MAX TEMP:  21;

LANSING        CLOUDY     5   3  91 W5        29.92R WCI  -4
6HR MIN TEMP:   4; 6HR MAX TEMP:  17; 6HR PCP: TRACE;

LAPEER         FLURRIES  10   6  85 NW5       29.88R WCI   2
6HR MIN TEMP:  10; 6HR MAX TEMP:  21;

MASON          PTCLDY     9   3  78 NW3       29.91R
6HR MIN TEMP:   9; 6HR MAX TEMP:  20;

MONROE         PTCLDY    14   7  75 N9        29.89R WCI   2
6HR MIN TEMP:  14; 6HR MAX TEMP:  21;

MT. CLEMENS    CLEAR     16  13  86 NW9       29.86R WCI   5
6HR MIN TEMP:  16; 6HR MAX TEMP:  20; 6HR PCP: TRACE;

PONTIAC        MOCLDY    11   8  88 NW10      29.86R WCI  -3
6HR MIN TEMP:  11; 6HR MAX TEMP:  20; 6HR PCP: TRACE;

PORT HOPE        N/A     20  12  71 NW14G23   29.83R WCI   7
6HR MIN TEMP:  19; 6HR MAX TEMP:  24;

PORT HURON     CLEAR     14  10  85 NW9       29.86R WCI   2
TRI CITIES     CLOUDY     4   3  96 NW7       29.92R WCI  -8
6HR MIN TEMP:   4; 6HR MAX TEMP:  16;

MIDLAND        FAIR      -1  -4  86 CALM      29.92R
6HR MIN TEMP:  -1; 6HR MAX TEMP:  16;

TROY           CLEAR     15  11  83 W9        29.90R WCI   4
SAGINAW HB     CLOUDY     3   0  85 NW6       29.92R WCI  -8
$$
MIZ043>046-050>051-056>058-064>065-071>073-077>080-141300-
SOUTHWEST LOWER MICHIGAN

CITY           SKY/WX    TMP DP  RH WIND       PRES   REMARKS
BATTLE CREEK   CLOUDY     8   5  87 CALM      29.91R
6HR MIN TEMP:   6; 6HR MAX TEMP:  19;

BENTON HARBOR  CLOUDY    13   7  77 E5        29.95R WCI   5
6HR MIN TEMP:   7; 6HR MAX TEMP:  22;

BIG RAPIDS     CLOUDY    -6  -9  83 CALM      29.89R
6HR MIN TEMP:  -6; 6HR MAX TEMP:  11;

COLDWATER      CLOUDY    10   6  85 N3        29.92R
6HR MIN TEMP:  10; 6HR MAX TEMP:  20;

HOLLAND        CLOUDY     4   1  88 SE3       29.95R
6HR MIN TEMP:   3; 6HR MAX TEMP:  17;

GRAND RAPIDS   CLOUDY     3   1  91 S3        29.92R
6HR MIN TEMP:   3; 6HR MAX TEMP:  16;

IONIA          FAIR       6   3  88 CALM      29.92R
6HR MIN TEMP:   5; 6HR MAX TEMP:  16;

KALAMAZOO      CLOUDY     6   3  87 CALM      29.93R
6HR MIN TEMP:   6; 6HR MAX TEMP:  20;

LUDINGTON      FLURRIES  15  12  90 CALM      29.92R
6HR MIN TEMP:  14; 6HR MAX TEMP:  17;

MARSHALL       CLOUDY     7   3  84 CALM      29.92R
6HR MIN TEMP:   7; 6HR MAX TEMP:  19;

MOUNT PLEASANT CLOUDY    -2  -8  77 CALM      29.91R
6HR MIN TEMP:  -2; 6HR MAX TEMP:  14;

MUSKEGON       CLOUDY     5   1  83 CALM      29.94R
6HR MIN TEMP:   1; 6HR MAX TEMP:  16; 6HR PCP: TRACE;

SOUTH HAVEN    CLOUDY     2  -2  83 CALM      29.94S
$$
MIZ016>042-141300-
NORTHERN LOWER MICHIGAN

CITY           SKY/WX    TMP DP  RH WIND       PRES   REMARKS
ALPENA         CLEAR      5   3  91 W7        29.88R WCI  -7
6HR MIN TEMP:   5; 6HR MAX TEMP:  15; 6HR PCP: TRACE;

BEAVER ISLAND  FLURRIES  18  11  75 NW7       29.91R WCI   8
6HR MIN TEMP:  15; 6HR MAX TEMP:  18;

BELLAIRE       PTCLDY     4   3  94 CALM      29.92R
6HR MIN TEMP:   2; 6HR MAX TEMP:  10;

CADILLAC       LGT SNOW   0  -4  81 CALM      29.85R
CHARLEVOIX     FLURRIES  18  11  71 NW9G18    29.93R WCI   7
6HR MIN TEMP:  17; 6HR MAX TEMP:  19;

FRANKFORT      FLURRIES  23  13  64 N8        29.91R WCI  14
GAYLORD        LGT SNOW   3  -1  83 CALM      29.83R FOG
6HR MIN TEMP:   2; 6HR MAX TEMP:   6; 6HR PCP: TRACE;

GRAYLING       CLEAR     -7 -12  79 CALM      29.87R
6HR MIN TEMP: -11; 6HR MAX TEMP:   4;

HARBOR SPRINGS FLURRIES   8   5  87 CALM      29.90R
HOUGHTON LAKE  CLOUDY     0  -3  87 SW3       29.86R
6HR MIN TEMP:   0; 6HR MAX TEMP:  10; 6HR PCP: TRACE;

MANISTEE       LGT SNOW  14  11  87 E5        29.92R FOG     WCI   6
OSCODA         CLEAR      4  -2  78 NW7       29.88R WCI  -8
6HR MIN TEMP:   3; 6HR MAX TEMP:  13;

PELLSTON       CLOUDY    12   8  84 NW12      29.90R WCI  -2
6HR MIN TEMP: -12; 6HR MAX TEMP:  12; 6HR PCP: TRACE;

ROGERS CITY    FLURRIES   9   4  82 NW3       29.88R
TRAVERSE CITY  LGT SNOW  14  10  84 SE5       29.90R FOG     WCI   6
6HR MIN TEMP:  14; 6HR MAX TEMP:  17; 6HR PCP:  0.01;

$$
MIZ007>008-015-141300-
EASTERN UPPER MICHIGAN

CITY           SKY/WX    TMP DP  RH WIND       PRES   REMARKS
KINROSS        FLURRIES  -2  -7  79 E3        29.87R
6HR MIN TEMP:  -5; 6HR MAX TEMP:  -2;

MACKINAC ISLAN CLOUDY    11   6  81 W8        29.88R WCI  -1
6HR MIN TEMP:   7; 6HR MAX TEMP:  11;

NEWBERRY       FLURRIES  10  10  96 W3        29.86R
6HR MIN TEMP:   8; 6HR MAX TEMP:  10;

S. S. MARIE    CLOUDY    -1  -6  79 E3        29.87R
6HR MIN TEMP:  -5; 6HR MAX TEMP:  -1;

$$
MIZ004>006-011>014-085-141300-
CENTRAL UPPER MICHIGAN

CITY           SKY/WX    TMP DP  RH WIND       PRES   REMARKS
MANISTIQUE     FLURRIES   9   4  82 W3        29.90R
6HR MIN TEMP:  -4; 6HR MAX TEMP:  12;

ESCANABA       PTCLDY    11   6  81 W9        29.95R WCI  -2
6HR MIN TEMP:  10; 6HR MAX TEMP:  14; 6HR PCP: TRACE;

MENOMINEE      CLOUDY    -1  -5  82 NW3       29.97S
6HR MIN TEMP:  -1; 6HR MAX TEMP:   7;

SAWYER-GWINN   CLOUDY    12   7  79 NW14      29.88R WCI  -3
$$
MIZ001>003-009>011-084-141300-
WESTERN UPPER MICHIGAN

CITY           SKY/WX    TMP DP  RH WIND       PRES   REMARKS
IRON MOUNTAIN  CLOUDY    10   5  80 CALM      29.91R
6HR MIN TEMP:  10; 6HR MAX TEMP:  16; 6HR PCP: TRACE;

HOUGHTON       CLOUDY     9   3  77 W8        29.89R WCI  -3
6HR MIN TEMP:   9; 6HR MAX TEMP:  14; 6HR PCP: TRACE;

IRONWOOD       FLURRIES  13   9  84 W9        29.93R WCI   1
6HR MIN TEMP:  12; 6HR MAX TEMP:  16;

$$

ABBREVIATIONS USED IN REMARKS
   TC - TEMPERATURE IN CELSIUS
  WCI - WIND CHILL INDEX
   HX - HEAT INDEX
  VSB - VISIBILITY





USA.gov is the U.S. government's official web portal to all federal, state and local government web resources and services.